sat.trackr.live / text

‹ back to catalog

STARLINK-36551

NORAD 67493 · 2026-012A

PAYLOAD ACTIVE UNKNOWN

§ Identity

Operator
Country
US
Launch date
2026-01-18
Launch site
AFETR
Launch vehicle
Mass (kg)
RCS (m²)

Purposes: comms

External: N2YO · Heavens-Above · Gunter

§ Orbital elements

Epoch: 2026-09-19T09:41:53.852064Z

Period
94.27 min
Inclination
43.0018°
Eccentricity
0.0003841
Mean motion
15.27605087 rev/d
Perigee alt
480.3 km
Apogee alt
485.6 km
Semi-major
6,861.1 km
B*
5.0227e-4
RAAN
300.7882°
Arg perigee
295.1173°
Mean anomaly
64.9280°
Rev number
3,738

§ Raw data

STARLINK-365511 67493U 26012A   26262.40409551  .00013597  00000+0  50227-3 0  99992 67493  43.0018 300.7882 0003841 295.1173  64.9280 15.27605087 37380

JSON: /api/v1/satellites/67493 · /tle

For live sub-satellite position, see the globe view (requires WebGL).

§ Visibility from observer

Set your observer location to see the next 7 days of passes ≥ 10°. The values pass through the URL so the page stays shareable.

No JS? Fill the form by hand. The geolocation button needs JavaScript.